Regional Weather Roundup
Issued by NWS Charleston, SC

Current Version | Previous Version | Graphics & Text | Print | Product List | Glossary On
Versions: 1 2 3 4 5 6 7 8 9 10 11 12 13 14 15 16 17 18 19 20 21 22 23 24 25 26 27 28 29 30 31 32 33 34 35 36 37 38 39 40 41 42 43 44 45 46 47 48 49 50
000 ASUS42 KCHS 251913 RWRCHS REGIONAL WEATHER ROUNDUP NATIONAL WEATHER SERVICE CHARLESTON SC 300 PM EDT MON JUL 25 2016 NOTE: "FAIR" INDICATES FEW OR NO CLOUDS BELOW 12,000 FEET WITH NO SIGNIFICANT WEATHER AND/OR OBSTRUCTIONS TO VISIBILITY. NOT ALL STATIONS ARE QUALITY CONTROLLED. USE DATA WITH CAUTION... ESPECIALLY DEWPOINT OBSERVATIONS. SCZ027-030-031-034>040-042>050-252000- ...SOUTHEAST SOUTH CAROLINA... CITY SKY/WX TMP DP RH WIND PRES REMARKS N CHARLESTON MOSUNNY 93 72 50 S15 30.04F HX 101 WATERFRONT PRK N/A 87 75 67 S10 30.04F HX 96 MOUNT PLEASANT FAIR 90 73 58 S13 30.05F HX 98 JOHNS ISLAND FAIR 90 75 62 S9 30.06F HX 100 PINOPOLIS N/A 90 73 58 VRB2 29.96F HX 98 MONCKS CORNER MOCLDY 88 70 55 S6 30.03F HX 92 SUMMERVILLE NOT AVBL BEAUFORT MCAS MOSUNNY 93 73 52 SE6 30.05F HX 102 BEAUFORT ARPT FAIR 90 73 58 S10 30.05F HX 98 HILTON HEAD IS MOSUNNY 95 73 49 S7G14 30.07F HX 105 WALTERBORO PTCLDY 95 68 41 S7 30.05F HX 99 ALLENDALE FAIR 95 66 38 VRB3 30.03F HX 98 ...SOUTHERN MIDLANDS AND PEE DEE... CITY SKY/WX TMP DP RH WIND PRES REMARKS GEORGETOWN FAIR 90 72 55 S8 30.06F HX 96 KINGSTREE FAIR 95 64 36 S8 30.03F HX 97 ORANGEBURG MOSUNNY 94 71 47 SW8 30.03F HX 101 BARNWELL NOT AVBL AIKEN NOT AVBL MANNING FAIR 91 68 46 SW9 30.03F HX 95 COLUMBIA MOSUNNY 97 71 42 S10 30.01F HX 104 SUMTER NOT AVBL FLORENCE SUNNY 94 72 48 SW12 30.02F HX 102 MYRTLE BEACH MOSUNNY 90 72 55 S17G23 30.07S HX 96 N MYRTLE BEACH SUNNY 85 76 74 SW17 30.04F HX 94 $$ GAZ063-065-086>088-099>101-113>116-118-119-134>141-150-252000- ...SOUTHEAST GEORGIA... CITY SKY/WX TMP DP RH WIND PRES REMARKS SAVANNAH ARPT MOSUNNY 94 70 45 S12G18 30.05S HX 100 HUNTER AAF SUNNY 91 75 60 SE9 30.03S HX 101 FORT STEWART MOSUNNY 93 69 45 VRB6 30.01F HX 98 STATESBORO SUNNY 95 69 43 S8 30.04F HX 100 SYLVANIA NOT AVBL CLAXTON MOCLDY 94 71 46 E6 30.03F HX 101 ...CSRA...CENTRAL AND FAR SOUTHEAST GEORGIA... CITY SKY/WX TMP DP RH WIND PRES REMARKS THOMSON NOT AVBL AUGUSTA-BUSH MOSUNNY 94 70 45 W5 30.00F HX 100 AUGUSTA-DANIEL SUNNY 96 68 39 S9 30.03F HX 101 SWAINSBORO FAIR 95 64 36 SE6 30.03F HX 97 VIDALIA MOSUNNY 97 63 32 S6 30.02F HX 98 EASTMAN CLOUDY 94 57 28 S12 30.04F HX 93 HAZLEHURST FAIR 96 67 38 CALM 30.01F HX 100 ALMA SUNNY 94 68 42 VRB7 30.03F HX 98 WAYCROSS MOSUNNY 97 70 41 E7 30.03F HX 103 JESUP FAIR 97 70 41 S6 30.03F HX 103 BAXLEY FAIR 95 75 52 E7 30.03F HX 107 BRUNSWICK SUNNY 91 70 49 SE10 30.06S HX 97 SAINT SIMONS SUNNY 89 73 59 S12 30.06F HX 97 $$ SCZ027-028-034-036>038-045-046-048>050-GAZ119-141-252000- ...LAKE AND SUPPLEMENTAL COASTAL OBSERVATIONS... STATION/POSITION TIME TEMP WIND PRES WAVE SWELL AIR SEA DIR/SP/G HT/PER HT/PER/DIR (UTC) (F) (DEG/KT/KT) (MB) (FT/S) (FT/S/D) WINYAH BAY 1745 87 190/ 11 1017.0 LAKE MURRAY 1800 94 160/ 2/ 2 1015.9F ACE BASIN NERRS NOT AVBL FORT PULASKI 1800 88 87 160/ 5/ 8 1018.4F SAPELO ISLAND 1800 91 160/ 10 1018.0F $$ ANZ835-935-AMZ111-154-330-350-352-354-370-450-454-472-252000- ...C-MAN AND BUOY OBSERVATIONS... STATION/POSITION TIME TEMP WIND PRES WAVE SWELL AIR SEA DIR/SP/G HT/PER HT/PER/DIR (UTC) (F) (DEG/KT/KT) (MB) (FT/S) (FT/S/D) BUOY 41004 1850 85 87 190/ 6/ 8 1017.7F 2/ 4 2/230/ 4 BUOY 41008 1750 84 87 170/ 6/ 8 1018.3 2/ 9 2/100/ 9 FOLLY BEACH CMAN 1800 87 180/ 7/ 8 1018.5F CAPERS NEARSHORE 1808 85 85 200/ 10/ 12 1018.2F FRIPP NEARSHORE 1808 85 87 190/ 8/ 10 1017.5F STATION/POSITION TIME TEMP WIND PRES WAVE SWELL AIR SEA DIR/SP/G HT/PER HT/PER/DIR (UTC) (F) (DEG/KT/KT) (MB) (FT/S) (FT/S/D) 5E ST. MARYS GA 1901 86 N/A 2/ 9 FRYING PAN BUOY 1800 85 86 210/ 8/ 12 1018.1F BUOY 41025 1750 84 86 220/ 12/ 14 1017.7 2/ 5 2/140/ 8 CAPE LOOKOUT NC 1800 87 200/ 10/ 13 1017.6F BUOY 41002 1850 83 85 160/ 8/ 10 1019.7F 2/ 8 2/100/ 8 BUOY 41010 1820 85 88 160/ 6/ 6 1018.9F ST AUGUSTINE FL 1900 83 87 110/ 12/ 13 1018.8F $$

USA.gov is the U.S. government's official web portal to all federal, state and local government web resources and services.